Zurück zum Katalog

VELA 9/10 INTERSTAGE

AktivMilitärHEO
NORAD 60001·PAYLOAD·🇺🇸 United States

Gestartet May 23, 1969 von Cape Canaveral Space Force Station

Loading…

Nächste Überflüge (nächste 24 Stunden)

TLE

VeraltetSource: Space-Track

Epoche: Aug 15, 2026, 13:45 UTC

1 60001U 69046G   26227.57328269 -.00001077  00000-0  00000-0 0  9999
2 60001  17.5690  38.8285 8013205 270.2721   0.4542  0.46172440 21737

Verfolge VELA 9/10 INTERSTAGE in Echtzeit mit AllMySat

Download on the App Store